Regional Weather Roundup
Issued by NWS

Home | Current Version | Previous Version | Graphics & Text | Print | Product List | Glossary On
Versions: 1 2 3 4 5 6 7 8 9 10 11 12 13 14 15 16 17 18 19 20 21 22 23 24 25 26 27
000
ASUS45 KSLC 242210
RWRUT

UTAH REGIONAL WEATHER ROUNDUP
NATIONAL WEATHER SERVICE SALT LAKE CITY UT
400 PM MDT MON APR 24 2017

UTZ001>011-023>025-242300-

NORTHERN UTAH

CITY           SKY/WX    TMP DP  RH WIND       PRES   REMARKS
BRIGHAM CITY   CLOUDY    48  39  72 SW9       29.72S
DUGWAY         LGT RAIN  55  35  47 N7        29.69F
HILL AFB       LGT RAIN  44  40  84 SW9       29.73S
LOGAN          CLOUDY    46  41  82 SE5       29.69F
OGDEN          LGT RAIN  46  40  79 W8        29.72F
SALT LAKE CITY LGT RAIN  49  42  77 N9        29.73S
TOOELE VALLEY  LGT RAIN  50  41  71 N8        29.73S
WENDOVER       CLOUDY    56  31  38 W24G31    29.69F
HEBER CITY     DRIZZLE   45  39  81 E8        29.69R
WEST JORDAN    CLOUDY    51  45  79 N17       29.72F

$$

UTZ011>015-024>027-242300-

CENTRAL/NORTHEAST UTAH

CITY           SKY/WX    TMP DP  RH WIND       PRES   REMARKS
PROVO AIRPORT  CLOUDY    50  39  66 N3        29.72S
MOAB/CANYONLAN CLOUDY    70  24  17 SW22      29.56F
DELTA          CLOUDY    59  30  33 N20G28    29.68S
PRICE          CLOUDY    55  33  43 W12G24    29.65S
ROOSEVELT      CLOUDY    59  34  38 SW15      29.60F
VERNAL         LGT RAIN  59  37  44 W13       29.59F

$$

UTZ013>016-019>022-027-242300-

SOUTHERN UTAH

CITY           SKY/WX    TMP DP  RH WIND       PRES   REMARKS
BRYCE CANYON   CLOUDY    55  19  24 SW20G25   29.80F
CEDAR CITY     CLOUDY    67  26  21 SW21G29   29.72F
MILFORD        CLOUDY    66  26  22 W21G33    29.67
ST GEORGE      CLOUDY    78  22  12 W21G28    29.64F
HANKSVILLE     CLOUDY    72  23  16 W22G28    29.60F
BLANDING       CLOUDY    64  21  20 SW9G18    29.79F

$$

REGIONAL REPORTS     COLORADO/ARIZONA

CITY           SKY/WX    TMP DP  RH WIND       PRES   REMARKS
CRAIG, CO      LGT RAIN  54  32  43 NW16      29.62F
GRAND JUNCTION CLOUDY    69  24  18 SW14G25   29.59F
RIFLE, CO      CLOUDY    66  24  20 SW17G30   29.59F
MONTROSE, CO   CLOUDY    62  25  24 SW15G25   29.71F
CORTEZ, CO     CLOUDY    63  21  20 W8G18     29.77F
COLORADO CITY    N/A     72  25  17 NW14      29.76F
PAGE, AZ       CLOUDY    74  24  15 VRB5      29.63F
GRAND CANYON   CLOUDY    65  21  18 SW21G37   29.83F
KINGMAN, AZ    PTSUNNY   77  25  14 SW25G35   29.75F
FLAGSTAFF, AZ  PTSUNNY   63  18  17 SW31G46   29.86F

$$

REGIONAL REPORTS    NEVADA/IDAHO/WYOMING

CITY           SKY/WX    TMP DP  RH WIND       PRES   REMARKS
LAS VEGAS, NV  PTSUNNY   84  23  10 VRB3      29.62F
ELY, NY        PTSUNNY   54  24  31 W26G35    29.78F
ELKO, NV       MOSUNNY   50  35  56 W20G26    29.78F
POCATELLO, ID  LGT RAIN  45  42  89 SW20      29.67F
BURLEY, ID     CLOUDY    47  41  80 W20G26    29.68S
FORT BRIDGER,  RAIN      41  41 100 W16G23    29.70F
EVANSTON, WY   CLOUDY    39  36  89 SW24      29.69F WCI  28
ROCK SPRINGS,  CLOUDY    47  37  68 NW15G22   29.61F
KEMMERER, WY   LGT SNOW  34  34 100 W16G28    29.67S WCI  23

$$




USA.gov is the U.S. government's official web portal to all federal, state and local government web resources and services.